Terminal Aerodrome Forecast
Issued by NWS Topeka, KS

Home | Current Version | Previous Version | Text Only | Print | Product List | Glossary Off
Versions: 1 2 3 4 5 6 7 8 9 10 11 12 13 14

000
FTUS43 KTOP 271120
TAFTOP
TAF
KTOP 271120Z 2712/2812 12004KT P6SM SCT035
     FM280400 07003KT P6SM VCTS BKN040CB
     FM281000 27004KT P6SM BKN150=

USA.gov is the U.S. government's official web portal to all federal, state and local government web resources and services.